START_TIME,STEP,MOV.,M35,t_acc.,PL05,t_acc.,PL06,t_acc.,PL07,t_acc.
1979-07-31 15:00:22.860 ,0,0,0.,4.8,5.,4.8,3.,4.8,0.,4.8
1979-07-31 15:00:27.660 ,0,0,0.,4.8,11.,4.8,1.,4.8,0.,4.8
1979-07-31 15:00:32.460 ,0,0,0.,4.8,5.,4.8,1.,4.8,0.,4.8
1979-07-31 15:00:37.260 ,0,0,0.,4.8,4.,4.8,0.,4.8,0.,4.8
1979-07-31 15:00:42.060 ,0,0,0.,4.8,9.,4.8,0.,4.8,0.,4.8
1979-07-31 15:00:46.850 ,2,0,0.,4.8,6.,4.8,0.,4.8,0.,4.8
1979-07-31 15:00:51.650 ,2,0,0.,4.8,6.,4.8,0.,4.8,1.,4.8
1979-07-31 15:00:56.450 ,2,0,0.,4.8,6.,4.8,2.,4.8,0.,4.8
1979-07-31 15:01:01.250 ,2,0,0.,4.8,12.,4.8,0.,4.8,0.,4.8
1979-07-31 15:01:06.050 ,2,0,0.,4.8,8.,4.8,0.,4.8,0.,4.8
1979-07-31 15:01:10.850 ,2,0,0.,4.8,10.,4.8,1.,4.8,0.,4.8
1979-07-31 15:01:15.650 ,2,0,0.,4.8,7.,4.8,1.,4.8,0.,4.8
1979-07-31 15:01:20.450 ,2,0,0.,4.8,10.,4.8,1.,4.8,0.,4.8
1979-07-31 15:01:25.250 ,2,0,0.,4.8,8.,4.8,0.,4.8,0.,4.8
1979-07-31 15:01:30.050 ,2,0,0.,4.8,9.,4.8,0.,4.8,0.,4.8
1979-07-31 15:02:22.850 ,0,0,0.,4.8,10.,4.8,2.,4.8,3.,4.8
1979-07-31 15:02:27.650 ,0,0,0.,4.8,12.,4.8,1.,4.8,0.,4.8
1979-07-31 15:02:32.450 ,0,0,0.,4.8,3.,4.8,0.,4.8,0.,4.8
1979-07-31 15:02:37.250 ,0,0,0.,4.8,5.,4.8,1.,4.8,0.,4.8
1979-07-31 15:02:42.050 ,0,0,0.,4.8,6.,4.8,1.,4.8,1.,4.8
1979-07-31 15:02:46.850 ,0,0,0.,4.8,6.,4.8,3.,4.8,0.,4.8
1979-07-31 15:02:51.650 ,0,0,0.,4.8,5.,4.8,1.,4.8,0.,4.8
1979-07-31 15:02:56.450 ,0,0,0.,4.8,4.,4.8,1.,4.8,0.,4.8
1979-07-31 15:03:01.250 ,0,0,0.,4.8,6.,4.8,0.,4.8,0.,4.8
1979-07-31 15:03:06.050 ,0,0,0.,4.8,2.,4.8,1.,4.8,0.,4.8
1979-07-31 15:03:10.850 ,5,0,0.,4.8,4.,4.8,1.,4.8,1.,4.8
1979-07-31 15:03:15.650 ,5,0,0.,4.8,3.,4.8,3.,4.8,1.,4.8
1979-07-31 15:03:20.450 ,5,0,0.,4.8,7.,4.8,0.,4.8,0.,4.8
1979-07-31 15:03:25.250 ,5,0,0.,4.8,6.,4.8,1.,4.8,0.,4.8
1979-07-31 15:03:30.050 ,5,0,0.,4.8,6.,4.8,0.,4.8,1.,4.8
1979-07-31 15:03:34.850 ,5,0,0.,4.8,6.,4.8,0.,4.8,1.,4.8
1979-07-31 15:03:39.650 ,5,0,0.,4.8,6.,4.8,0.,4.8,0.,4.8
1979-07-31 15:03:44.450 ,5,0,0.,4.8,3.,4.8,0.,4.8,0.,4.8
1979-07-31 15:03:49.250 ,5,0,0.,4.8,5.,4.8,3.,4.8,2.,4.8
1979-07-31 15:03:54.050 ,5,0,0.,4.8,5.,4.8,2.,4.8,0.,4.8
1979-07-31 15:03:58.850 ,6,0,0.,4.8,6.,4.8,1.,4.8,0.,4.8
1979-07-31 15:04:03.650 ,6,0,0.,4.8,5.,4.8,0.,4.8,0.,4.8
1979-07-31 15:04:08.450 ,6,0,0.,4.8,20.,4.8,1.,4.8,1.,4.8
1979-07-31 15:04:13.250 ,6,0,0.,4.8,15.,4.8,1.,4.8,0.,4.8
1979-07-31 15:04:18.050 ,6,0,0.,4.8,16.,4.8,1.,4.8,1.,4.8
1979-07-31 15:04:22.850 ,6,0,0.,4.8,12.,4.8,2.,4.8,0.,4.8
1979-07-31 15:04:27.650 ,6,0,0.,4.8,12.,4.8,1.,4.8,1.,4.8
1979-07-31 15:04:32.450 ,6,0,0.,4.8,11.,4.8,2.,4.8,2.,4.8
1979-07-31 15:04:37.250 ,6,0,0.,4.8,8.,4.8,1.,4.8,1.,4.8
1979-07-31 15:04:42.050 ,6,0,0.,4.8,11.,4.8,2.,4.8,0.,4.8
1979-07-31 15:04:46.850 ,7,0,0.,4.8,14.,4.8,0.,4.8,0.,4.8
1979-07-31 15:04:51.650 ,7,0,0.,4.8,11.,4.8,1.,4.8,0.,4.8
1979-07-31 15:04:56.450 ,7,0,0.,4.8,1.,4.8,0.,4.8,0.,4.8
1979-07-31 15:05:01.250 ,7,0,0.,4.8,2.,4.8,0.,4.8,1.,4.8
1979-07-31 15:05:06.050 ,7,0,0.,4.8,0.,4.8,0.,4.8,0.,4.8
1979-07-31 15:05:10.850 ,7,0,0.,4.8,1.,4.8,0.,4.8,0.,4.8
1979-07-31 15:05:15.650 ,7,0,0.,4.8,0.,4.8,0.,4.8,0.,4.8
1979-07-31 15:05:20.450 ,7,0,0.,4.8,1.,4.8,0.,4.8,0.,4.8
1979-07-31 15:05:25.250 ,7,0,0.,4.8,0.,4.8,0.,4.8,0.,4.8
1979-07-31 15:05:30.050 ,7,0,0.,4.8,1.,4.8,0.,4.8,0.,4.8
1979-07-31 15:05:34.850 ,7,0,0.,4.8,1.,4.8,0.,4.8,0.,4.8
1979-07-31 15:05:39.650 ,7,0,0.,4.8,0.,4.8,0.,4.8,0.,4.8
1979-07-31 15:05:44.450 ,7,0,0.,4.8,1.,4.8,0.,4.8,0.,4.8
1979-07-31 15:05:49.250 ,7,0,0.,4.8,0.,4.8,0.,4.8,0.,4.8
1979-07-31 15:05:54.050 ,7,0,0.,4.8,1.,4.8,0.,4.8,0.,4.8
1979-07-31 15:05:58.850 ,7,0,0.,4.8,1.,4.8,0.,4.8,0.,4.8
1979-07-31 15:06:03.650 ,7,0,0.,4.8,0.,4.8,0.,4.8,0.,4.8
1979-07-31 15:06:08.450 ,7,0,0.,4.8,1.,4.8,0.,4.8,0.,4.8
1979-07-31 15:06:13.250 ,7,0,0.,4.8,0.,4.8,0.,4.8,0.,4.8
1979-07-31 15:06:18.050 ,7,0,0.,4.8,0.,4.8,0.,4.8,0.,4.8
1979-07-31 15:06:22.850 ,6,0,0.,4.8,1.,4.8,1.,4.8,0.,4.8
1979-07-31 15:06:27.650 ,6,0,0.,4.8,1.,4.8,0.,4.8,0.,4.8
1979-07-31 15:06:32.450 ,6,0,0.,4.8,11.,4.8,1.,4.8,2.,4.8
1979-07-31 15:06:37.250 ,6,0,0.,4.8,18.,4.8,0.,4.8,0.,4.8
1979-07-31 15:06:42.050 ,6,0,0.,4.8,17.,4.8,1.,4.8,0.,4.8
1979-07-31 15:06:46.850 ,6,0,0.,4.8,12.,4.8,3.,4.8,0.,4.8
1979-07-31 15:06:51.650 ,6,0,0.,4.8,13.,4.8,0.,4.8,2.,4.8
1979-07-31 15:06:56.450 ,6,0,0.,4.8,16.,4.8,0.,4.8,2.,4.8
1979-07-31 15:07:01.250 ,6,0,0.,4.8,14.,4.8,0.,4.8,1.,4.8
1979-07-31 15:07:06.050 ,6,0,0.,4.8,5.,4.8,4.,4.8,0.,4.8
1979-07-31 15:07:10.850 ,5,0,0.,4.8,8.,4.8,0.,4.8,0.,4.8
1979-07-31 15:07:15.650 ,5,0,0.,4.8,13.,4.8,2.,4.8,0.,4.8
1979-07-31 15:07:20.450 ,5,0,0.,4.8,5.,4.8,0.,4.8,0.,4.8
1979-07-31 15:07:25.250 ,5,0,0.,4.8,5.,4.8,0.,4.8,0.,4.8
1979-07-31 15:07:30.050 ,5,0,0.,4.8,7.,4.8,1.,4.8,1.,4.8
1979-07-31 15:07:34.850 ,5,0,0.,4.8,8.,4.8,0.,4.8,0.,4.8
1979-07-31 15:07:39.650 ,5,0,0.,4.8,7.,4.8,3.,4.8,1.,4.8
1979-07-31 15:07:44.450 ,5,0,0.,4.8,8.,4.8,0.,4.8,2.,4.8
1979-07-31 15:07:49.250 ,5,0,0.,4.8,5.,4.8,0.,4.8,0.,4.8
1979-07-31 15:07:54.050 ,5,0,0.,4.8,3.,4.8,2.,4.8,0.,4.8
1979-07-31 15:07:58.850 ,4,0,0.,4.8,2.,4.8,0.,4.8,0.,4.8
1979-07-31 15:08:03.650 ,4,0,0.,4.8,8.,4.8,1.,4.8,0.,4.8
1979-07-31 15:08:08.450 ,4,0,0.,4.8,5.,4.8,0.,4.8,1.,4.8
1979-07-31 15:08:13.250 ,4,0,0.,4.8,4.,4.8,1.,4.8,0.,4.8
1979-07-31 15:08:18.050 ,4,0,0.,4.8,5.,4.8,2.,4.8,1.,4.8
1979-07-31 15:08:22.850 ,4,0,0.,4.8,7.,4.8,0.,4.8,0.,4.8
1979-07-31 15:08:27.650 ,4,0,0.,4.8,5.,4.8,1.,4.8,0.,4.8
1979-07-31 15:08:32.450 ,4,0,0.,4.8,3.,4.8,1.,4.8,0.,4.8
1979-07-31 15:08:37.250 ,4,0,0.,4.8,7.,4.8,0.,4.8,0.,4.8
1979-07-31 15:08:42.050 ,4,0,0.,4.8,7.,4.8,0.,4.8,0.,4.8
1979-07-31 15:08:46.850 ,3,0,0.,4.8,3.,4.8,2.,4.8,1.,4.8
1979-07-31 15:08:51.650 ,3,0,0.,4.8,6.,4.8,0.,4.8,1.,4.8
1979-07-31 15:08:56.450 ,3,0,0.,4.8,17.,4.8,1.,4.8,0.,4.8
1979-07-31 15:09:01.250 ,3,0,0.,4.8,13.,4.8,0.,4.8,0.,4.8
1979-07-31 15:09:06.050 ,3,0,0.,4.8,10.,4.8,2.,4.8,0.,4.8
1979-07-31 15:09:10.850 ,3,0,0.,4.8,10.,4.8,1.,4.8,0.,4.8
1979-07-31 15:09:15.650 ,3,0,0.,4.8,12.,4.8,1.,4.8,1.,4.8
1979-07-31 15:09:20.450 ,3,0,0.,4.8,15.,4.8,1.,4.8,1.,4.8
1979-07-31 15:09:25.250 ,3,0,0.,4.8,10.,4.8,0.,4.8,2.,4.8
1979-07-31 15:09:30.050 ,3,0,0.,4.8,9.,4.8,1.,4.8,0.,4.8
1979-07-31 15:09:34.850 ,2,0,0.,4.8,14.,4.8,3.,4.8,0.,4.8
1979-07-31 15:09:39.650 ,2,0,0.,4.8,12.,4.8,1.,4.8,0.,4.8
1979-07-31 15:09:44.450 ,2,0,0.,4.8,5.,4.8,1.,4.8,0.,4.8
1979-07-31 15:09:49.250 ,2,0,0.,4.8,8.,4.8,0.,4.8,0.,4.8
1979-07-31 15:09:54.050 ,2,0,0.,4.8,6.,4.8,1.,4.8,0.,4.8
1979-07-31 15:09:58.850 ,2,0,0.,4.8,3.,4.8,1.,4.8,0.,4.8
1979-07-31 15:10:03.650 ,2,0,0.,4.8,8.,4.8,1.,4.8,0.,4.8
1979-07-31 15:10:08.450 ,2,0,0.,4.8,2.,4.8,0.,4.8,0.,4.8
1979-07-31 15:10:13.250 ,2,0,0.,4.8,5.,4.8,0.,4.8,0.,4.8
1979-07-31 15:10:18.050 ,2,0,0.,4.8,4.,4.8,0.,4.8,0.,4.8
1979-07-31 15:10:22.850 ,1,0,0.,4.8,12.,4.8,1.,4.8,0.,4.8
1979-07-31 15:10:27.650 ,1,0,0.,4.8,8.,4.8,1.,4.8,1.,4.8
1979-07-31 15:10:32.450 ,1,0,0.,4.8,4.,4.8,0.,4.8,2.,4.8
1979-07-31 15:10:37.250 ,1,0,0.,4.8,11.,4.8,2.,4.8,0.,4.8
1979-07-31 15:10:42.050 ,1,0,0.,4.8,6.,4.8,1.,4.8,0.,4.8
1979-07-31 15:10:46.850 ,1,0,0.,4.8,11.,4.8,0.,4.8,0.,4.8
1979-07-31 15:10:51.650 ,1,0,0.,4.8,5.,4.8,1.,4.8,0.,4.8
1979-07-31 15:10:56.450 ,1,0,0.,4.8,9.,4.8,2.,4.8,1.,4.8
1979-07-31 15:11:01.250 ,1,0,0.,4.8,11.,4.8,1.,4.8,0.,4.8
1979-07-31 15:11:06.050 ,1,0,0.,4.8,4.,4.8,2.,4.8,0.,4.8
1979-07-31 15:11:10.850 ,0,0,0.,4.8,11.,4.8,0.,4.8,0.,4.8
1979-07-31 15:11:15.650 ,0,0,0.,4.8,10.,4.8,0.,4.8,0.,4.8
1979-07-31 15:11:20.450 ,0,0,0.,4.8,15.,4.8,0.,4.8,0.,4.8
1979-07-31 15:11:25.250 ,0,0,0.,4.8,8.,4.8,1.,4.8,0.,4.8
1979-07-31 15:11:30.050 ,0,0,0.,4.8,12.,4.8,2.,4.8,0.,4.8
1979-07-31 15:11:34.850 ,0,0,0.,4.8,15.,4.8,0.,4.8,0.,4.8
1979-07-31 15:11:39.650 ,0,0,0.,4.8,16.,4.8,2.,4.8,0.,4.8
1979-07-31 15:11:44.450 ,0,0,0.,4.8,11.,4.8,3.,4.8,0.,4.8
1979-07-31 15:11:49.250 ,0,0,0.,4.8,9.,4.8,0.,4.8,0.,4.8
1979-07-31 15:11:54.050 ,0,0,0.,4.8,8.,4.8,1.,4.8,0.,4.8
1979-07-31 15:11:58.850 ,0,0,0.,4.8,12.,4.8,0.,4.8,0.,4.8
1979-07-31 15:12:03.650 ,0,0,0.,4.8,7.,4.8,3.,4.8,0.,4.8
1979-07-31 15:12:08.450 ,0,0,0.,4.8,16.,4.8,0.,4.8,0.,4.8
1979-07-31 15:12:13.250 ,0,0,0.,4.8,12.,4.8,0.,4.8,2.,4.8
1979-07-31 15:12:18.050 ,0,0,0.,4.8,9.,4.8,0.,4.8,0.,4.8
1979-07-31 15:12:22.850 ,0,0,0.,4.8,10.,4.8,0.,4.8,0.,4.8
1979-07-31 15:12:27.650 ,0,0,0.,4.8,10.,4.8,1.,4.8,0.,4.8
1979-07-31 15:12:32.450 ,0,0,0.,4.8,9.,4.8,1.,4.8,0.,4.8
1979-07-31 15:12:37.250 ,0,0,0.,4.8,7.,4.8,1.,4.8,0.,4.8
1979-07-31 15:12:42.050 ,0,0,0.,4.8,12.,4.8,1.,4.8,0.,4.8
1979-07-31 15:12:46.850 ,1,0,0.,4.8,8.,4.8,2.,4.8,0.,4.8
1979-07-31 15:12:51.650 ,1,0,0.,4.8,12.,4.8,1.,4.8,0.,4.8
1979-07-31 15:12:56.450 ,1,0,0.,4.8,9.,4.8,1.,4.8,1.,4.8
1979-07-31 15:13:01.250 ,1,0,0.,4.8,6.,4.8,0.,4.8,0.,4.8
1979-07-31 15:13:06.050 ,1,0,0.,4.8,4.,4.8,1.,4.8,0.,4.8
1979-07-31 15:13:10.850 ,1,0,0.,4.8,8.,4.8,3.,4.8,0.,4.8
1979-07-31 15:13:15.650 ,1,0,0.,4.8,6.,4.8,2.,4.8,0.,4.8
1979-07-31 15:13:20.450 ,1,0,0.,4.8,5.,4.8,0.,4.8,0.,4.8
1979-07-31 15:13:25.250 ,1,0,0.,4.8,9.,4.8,1.,4.8,0.,4.8
1979-07-31 15:13:30.050 ,1,0,0.,4.8,4.,4.8,0.,4.8,0.,4.8
1979-07-31 15:13:34.850 ,2,0,0.,4.8,10.,4.8,2.,4.8,1.,4.8
1979-07-31 15:13:39.650 ,2,0,0.,4.8,9.,4.8,1.,4.8,0.,4.8
1979-07-31 15:13:44.450 ,2,0,0.,4.8,10.,4.8,3.,4.8,0.,4.8
1979-07-31 15:13:49.250 ,2,0,0.,4.8,11.,4.8,1.,4.8,0.,4.8
1979-07-31 15:13:54.050 ,2,0,0.,4.8,13.,4.8,0.,4.8,0.,4.8
1979-07-31 15:13:58.850 ,2,0,0.,4.8,4.,4.8,0.,4.8,0.,4.8
1979-07-31 15:14:03.650 ,2,0,0.,4.8,6.,4.8,0.,4.8,0.,4.8
1979-07-31 15:14:08.450 ,2,0,0.,4.8,9.,4.8,0.,4.8,0.,4.8
1979-07-31 15:14:13.250 ,2,0,0.,4.8,8.,4.8,0.,4.8,0.,4.8
1979-07-31 15:14:18.050 ,2,0,0.,4.8,9.,4.8,0.,4.8,2.,4.8
1979-07-31 15:14:22.850 ,3,0,0.,4.8,9.,4.8,1.,4.8,0.,4.8
1979-07-31 15:14:27.650 ,3,0,0.,4.8,4.,4.8,1.,4.8,0.,4.8
1979-07-31 15:14:32.450 ,3,0,0.,4.8,8.,4.8,1.,4.8,0.,4.8
1979-07-31 15:14:37.250 ,3,0,0.,4.8,15.,4.8,1.,4.8,0.,4.8
1979-07-31 15:14:42.050 ,3,0,0.,4.8,10.,4.8,1.,4.8,0.,4.8
1979-07-31 15:14:46.850 ,3,0,0.,4.8,10.,4.8,0.,4.8,1.,4.8
1979-07-31 15:14:51.650 ,3,0,0.,4.8,21.,4.8,1.,4.8,0.,4.8
1979-07-31 15:14:56.450 ,3,0,0.,4.8,12.,4.8,0.,4.8,0.,4.8
1979-07-31 15:15:01.250 ,3,0,0.,4.8,8.,4.8,0.,4.8,0.,4.8
1979-07-31 15:15:06.050 ,3,0,1.,4.8,11.,4.8,0.,4.8,1.,4.8
1979-07-31 15:15:10.850 ,4,0,0.,4.8,13.,4.8,1.,4.8,1.,4.8
1979-07-31 15:15:15.650 ,4,0,0.,4.8,8.,4.8,0.,4.8,1.,4.8
1979-07-31 15:15:20.450 ,4,0,0.,4.8,3.,4.8,3.,4.8,0.,4.8
1979-07-31 15:15:25.250 ,4,0,0.,4.8,5.,4.8,1.,4.8,1.,4.8
1979-07-31 15:15:30.050 ,4,0,0.,4.8,4.,4.8,1.,4.8,1.,4.8
1979-07-31 15:15:34.850 ,4,0,0.,4.8,3.,4.8,2.,4.8,0.,4.8
1979-07-31 15:15:39.650 ,4,0,0.,4.8,8.,4.8,0.,4.8,0.,4.8
1979-07-31 15:15:44.450 ,4,0,0.,4.8,8.,4.8,1.,4.8,1.,4.8
1979-07-31 15:15:49.250 ,4,0,0.,4.8,4.,4.8,1.,4.8,0.,4.8
1979-07-31 15:15:54.050 ,4,0,0.,4.8,1.,4.8,1.,4.8,0.,4.8
1979-07-31 15:15:58.850 ,5,0,0.,4.8,7.,4.8,1.,4.8,0.,4.8
1979-07-31 15:16:03.650 ,5,0,0.,4.8,6.,4.8,0.,4.8,1.,4.8
1979-07-31 15:16:08.450 ,5,0,0.,4.8,6.,4.8,0.,4.8,0.,4.8
1979-07-31 15:16:13.250 ,5,0,0.,4.8,5.,4.8,1.,4.8,0.,4.8
1979-07-31 15:16:18.050 ,5,0,0.,4.8,9.,4.8,1.,4.8,1.,4.8
1979-07-31 15:16:22.850 ,5,0,0.,4.8,6.,4.8,0.,4.8,0.,4.8
1979-07-31 15:16:27.650 ,5,0,0.,4.8,6.,4.8,2.,4.8,0.,4.8
1979-07-31 15:16:32.450 ,5,0,0.,4.8,9.,4.8,0.,4.8,0.,4.8
1979-07-31 15:16:37.250 ,5,0,0.,4.8,4.,4.8,0.,4.8,0.,4.8
1979-07-31 15:16:42.050 ,5,0,0.,4.8,4.,4.8,1.,4.8,0.,4.8
1979-07-31 15:16:46.850 ,6,0,0.,4.8,5.,4.8,2.,4.8,0.,4.8
1979-07-31 15:16:51.650 ,6,0,0.,4.8,7.,4.8,0.,4.8,0.,4.8
1979-07-31 15:16:56.450 ,6,0,0.,4.8,14.,4.8,0.,4.8,1.,4.8
1979-07-31 15:17:01.250 ,6,0,0.,4.8,16.,4.8,0.,4.8,0.,4.8
1979-07-31 15:17:06.050 ,6,0,0.,4.8,11.,4.8,2.,4.8,0.,4.8
1979-07-31 15:17:10.850 ,6,0,0.,4.8,12.,4.8,2.,4.8,0.,4.8
1979-07-31 15:17:15.650 ,6,0,0.,4.8,11.,4.8,0.,4.8,1.,4.8
1979-07-31 15:17:20.450 ,6,0,0.,4.8,11.,4.8,0.,4.8,1.,4.8
1979-07-31 15:17:25.250 ,6,0,0.,4.8,6.,4.8,4.,4.8,1.,4.8
1979-07-31 15:17:30.050 ,6,0,0.,4.8,16.,4.8,1.,4.8,1.,4.8
1979-07-31 15:17:34.850 ,7,0,0.,4.8,14.,4.8,1.,4.8,1.,4.8
1979-07-31 15:17:39.650 ,7,0,0.,4.8,12.,4.8,1.,4.8,1.,4.8
1979-07-31 15:17:44.450 ,7,0,0.,4.8,0.,4.8,0.,4.8,0.,4.8
1979-07-31 15:17:49.250 ,7,0,0.,4.8,1.,4.8,0.,4.8,0.,4.8
1979-07-31 15:17:54.050 ,7,0,0.,4.8,0.,4.8,0.,4.8,0.,4.8
1979-07-31 15:17:58.850 ,7,0,0.,4.8,0.,4.8,0.,4.8,0.,4.8
1979-07-31 15:18:03.650 ,7,0,0.,4.8,0.,4.8,0.,4.8,0.,4.8
1979-07-31 15:18:08.450 ,7,0,0.,4.8,0.,4.8,0.,4.8,0.,4.8
1979-07-31 15:18:13.250 ,7,0,0.,4.8,1.,4.8,0.,4.8,1.,4.8
1979-07-31 15:18:18.050 ,7,0,0.,4.8,1.,4.8,0.,4.8,0.,4.8
1979-07-31 15:18:22.850 ,7,0,0.,4.8,0.,4.8,0.,4.8,0.,4.8
1979-07-31 15:18:27.650 ,7,0,0.,4.8,1.,4.8,0.,4.8,0.,4.8
1979-07-31 15:18:32.450 ,7,0,0.,4.8,1.,4.8,0.,4.8,0.,4.8
1979-07-31 15:18:37.250 ,7,0,0.,4.8,0.,4.8,1.,4.8,0.,4.8
1979-07-31 15:18:42.050 ,7,0,0.,4.8,0.,4.8,0.,4.8,0.,4.8
1979-07-31 15:18:46.850 ,7,0,0.,4.8,0.,4.8,0.,4.8,1.,4.8
1979-07-31 15:18:51.650 ,7,0,0.,4.8,0.,4.8,0.,4.8,0.,4.8
1979-07-31 15:18:56.450 ,7,0,0.,4.8,2.,4.8,0.,4.8,0.,4.8
1979-07-31 15:19:01.250 ,7,0,0.,4.8,2.,4.8,0.,4.8,0.,4.8
1979-07-31 15:19:06.050 ,7,0,0.,4.8,0.,4.8,0.,4.8,0.,4.8
1979-07-31 15:19:10.850 ,6,0,0.,4.8,0.,4.8,0.,4.8,1.,4.8
1979-07-31 15:19:15.650 ,6,0,0.,4.8,1.,4.8,1.,4.8,0.,4.8
1979-07-31 15:19:20.450 ,6,0,0.,4.8,10.,4.8,2.,4.8,0.,4.8
1979-07-31 15:19:25.250 ,6,0,0.,4.8,15.,4.8,0.,4.8,0.,4.8
1979-07-31 15:19:30.050 ,6,0,0.,4.8,8.,4.8,2.,4.8,0.,4.8
1979-07-31 15:19:34.850 ,6,0,0.,4.8,7.,4.8,2.,4.8,0.,4.8
1979-07-31 15:19:39.650 ,6,0,0.,4.8,10.,4.8,2.,4.8,0.,4.8
1979-07-31 15:19:44.450 ,6,0,0.,4.8,10.,4.8,2.,4.8,1.,4.8
1979-07-31 15:19:49.250 ,6,0,0.,4.8,12.,4.8,0.,4.8,0.,4.8
1979-07-31 15:19:54.050 ,6,0,0.,4.8,9.,4.8,2.,4.8,2.,4.8
1979-07-31 15:19:58.850 ,5,0,0.,4.8,11.,4.8,2.,4.8,0.,4.8
1979-07-31 15:20:03.650 ,5,0,0.,4.8,11.,4.8,1.,4.8,0.,4.8
1979-07-31 15:20:08.450 ,5,0,0.,4.8,5.,4.8,1.,4.8,0.,4.8
1979-07-31 15:20:13.250 ,5,0,0.,4.8,7.,4.8,1.,4.8,0.,4.8
1979-07-31 15:20:18.050 ,5,0,0.,4.8,3.,4.8,2.,4.8,0.,4.8
1979-07-31 15:20:22.850 ,5,0,0.,4.8,4.,4.8,0.,4.8,0.,4.8
1979-07-31 15:20:27.650 ,5,0,0.,4.8,7.,4.8,0.,4.8,0.,4.8
1979-07-31 15:20:32.450 ,5,0,0.,4.8,4.,4.8,0.,4.8,0.,4.8
1979-07-31 15:20:37.250 ,5,0,0.,4.8,5.,4.8,0.,4.8,0.,4.8
1979-07-31 15:20:42.050 ,5,0,0.,4.8,4.,4.8,1.,4.8,0.,4.8
1979-07-31 15:20:46.850 ,4,0,0.,4.8,7.,4.8,0.,4.8,1.,4.8
1979-07-31 15:20:51.650 ,4,0,0.,4.8,7.,4.8,0.,4.8,0.,4.8
1979-07-31 15:20:56.450 ,4,0,0.,4.8,9.,4.8,2.,4.8,0.,4.8
1979-07-31 15:21:01.250 ,4,0,0.,4.8,3.,4.8,1.,4.8,0.,4.8
1979-07-31 15:21:06.050 ,4,0,0.,4.8,6.,4.8,2.,4.8,0.,4.8
1979-07-31 15:21:10.850 ,4,0,0.,4.8,5.,4.8,1.,4.8,1.,4.8
1979-07-31 15:21:15.650 ,4,0,0.,4.8,8.,4.8,1.,4.8,0.,4.8
1979-07-31 15:21:20.450 ,4,0,0.,4.8,7.,4.8,0.,4.8,0.,4.8
1979-07-31 15:21:25.250 ,4,0,0.,4.8,1.,4.8,0.,4.8,0.,4.8
1979-07-31 15:21:30.050 ,4,0,0.,4.8,5.,4.8,0.,4.8,0.,4.8
1979-07-31 15:21:34.850 ,3,0,0.,4.8,8.,4.8,1.,4.8,0.,4.8
1979-07-31 15:21:39.650 ,3,0,1.,4.8,7.,4.8,1.,4.8,1.,4.8
1979-07-31 15:21:44.450 ,3,0,0.,4.8,12.,4.8,1.,4.8,0.,4.8
1979-07-31 15:21:49.250 ,3,0,0.,4.8,18.,4.8,0.,4.8,0.,4.8
1979-07-31 15:21:54.050 ,3,0,0.,4.8,6.,4.8,2.,4.8,0.,4.8
1979-07-31 15:21:58.850 ,3,0,0.,4.8,8.,4.8,1.,4.8,2.,4.8
1979-07-31 15:22:03.650 ,3,0,0.,4.8,10.,4.8,2.,4.8,2.,4.8
1979-07-31 15:22:08.450 ,3,0,0.,4.8,12.,4.8,1.,4.8,0.,4.8
1979-07-31 15:22:13.250 ,3,0,0.,4.8,10.,4.8,2.,4.8,1.,4.8
1979-07-31 15:22:18.050 ,3,0,0.,4.8,9.,4.8,0.,4.8,0.,4.8
1979-07-31 15:22:22.850 ,2,0,0.,4.8,16.,4.8,2.,4.8,0.,4.8
1979-07-31 15:22:27.650 ,2,0,0.,4.8,13.,4.8,1.,4.8,1.,4.8
1979-07-31 15:22:32.450 ,2,0,0.,4.8,9.,4.8,0.,4.8,1.,4.8
1979-07-31 15:22:37.250 ,2,0,0.,4.8,6.,4.8,1.,4.8,0.,4.8
1979-07-31 15:22:42.050 ,2,0,0.,4.8,8.,4.8,0.,4.8,0.,4.8
1979-07-31 15:22:46.850 ,2,0,0.,4.8,5.,4.8,1.,4.8,0.,4.8
1979-07-31 15:22:51.650 ,2,0,0.,4.8,8.,4.8,1.,4.8,0.,4.8
1979-07-31 15:22:56.450 ,2,0,0.,4.8,8.,4.8,1.,4.8,0.,4.8
1979-07-31 15:23:01.250 ,2,0,0.,4.8,8.,4.8,0.,4.8,0.,4.8
1979-07-31 15:23:06.050 ,2,0,0.,4.8,5.,4.8,1.,4.8,0.,4.8
1979-07-31 15:23:10.850 ,1,0,0.,4.8,4.,4.8,1.,4.8,1.,4.8
1979-07-31 15:23:15.650 ,1,0,0.,4.8,7.,4.8,4.,4.8,0.,4.8
1979-07-31 15:23:20.450 ,1,0,0.,4.8,9.,4.8,1.,4.8,0.,4.8
1979-07-31 15:23:25.250 ,1,0,0.,4.8,9.,4.8,2.,4.8,0.,4.8
1979-07-31 15:23:30.050 ,1,0,0.,4.8,10.,4.8,2.,4.8,0.,4.8
1979-07-31 15:23:34.850 ,1,0,0.,4.8,10.,4.8,1.,4.8,1.,4.8
1979-07-31 15:23:39.650 ,1,0,0.,4.8,7.,4.8,1.,4.8,1.,4.8
1979-07-31 15:23:44.450 ,1,0,0.,4.8,5.,4.8,1.,4.8,0.,4.8
1979-07-31 15:23:49.250 ,1,0,0.,4.8,5.,4.8,0.,4.8,0.,4.8
1979-07-31 15:23:54.050 ,1,0,0.,4.8,9.,4.8,0.,4.8,0.,4.8
1979-07-31 15:23:58.850 ,0,0,0.,4.8,9.,4.8,3.,4.8,0.,4.8
1979-07-31 15:24:03.650 ,0,0,0.,4.8,5.,4.8,0.,4.8,1.,4.8
1979-07-31 15:24:08.450 ,0,0,0.,4.8,6.,4.8,2.,4.8,0.,4.8
1979-07-31 15:24:13.250 ,0,0,0.,4.8,17.,4.8,2.,4.8,0.,4.8
1979-07-31 15:24:18.050 ,0,0,0.,4.8,9.,4.8,0.,4.8,0.,4.8
1979-07-31 15:24:22.850 ,0,0,0.,4.8,7.,4.8,1.,4.8,0.,4.8
1979-07-31 15:24:27.650 ,0,0,0.,4.8,11.,4.8,2.,4.8,0.,4.8
1979-07-31 15:24:32.450 ,0,0,0.,4.8,14.,4.8,0.,4.8,0.,4.8
1979-07-31 15:24:37.250 ,0,0,0.,4.8,9.,4.8,1.,4.8,0.,4.8
1979-07-31 15:24:42.050 ,0,0,0.,4.8,14.,4.8,1.,4.8,1.,4.8
1979-07-31 15:24:46.850 ,0,0,0.,4.8,11.,4.8,3.,4.8,1.,4.8
1979-07-31 15:24:51.650 ,0,0,0.,4.8,6.,4.8,1.,4.8,0.,4.8
1979-07-31 15:24:56.450 ,0,0,0.,4.8,7.,4.8,0.,4.8,0.,4.8
1979-07-31 15:25:01.250 ,0,0,0.,4.8,13.,4.8,2.,4.8,2.,4.8
1979-07-31 15:25:06.050 ,0,0,0.,4.8,5.,4.8,2.,4.8,0.,4.8
1979-07-31 15:25:10.850 ,0,0,0.,4.8,9.,4.8,1.,4.8,0.,4.8
1979-07-31 15:25:15.650 ,0,0,0.,4.8,16.,4.8,0.,4.8,0.,4.8
1979-07-31 15:25:20.450 ,0,0,0.,4.8,14.,4.8,0.,4.8,0.,4.8
1979-07-31 15:25:25.250 ,0,0,0.,4.8,13.,4.8,2.,4.8,0.,4.8
1979-07-31 15:25:30.050 ,0,0,0.,4.8,7.,4.8,2.,4.8,0.,4.8
1979-07-31 15:25:34.850 ,1,0,0.,4.8,9.,4.8,1.,4.8,1.,4.8
1979-07-31 15:25:39.650 ,1,0,0.,4.8,11.,4.8,1.,4.8,0.,4.8
1979-07-31 15:25:44.450 ,1,0,0.,4.8,6.,4.8,0.,4.8,0.,4.8
1979-07-31 15:25:49.250 ,1,0,0.,4.8,10.,4.8,0.,4.8,0.,4.8
1979-07-31 15:25:54.050 ,1,0,0.,4.8,8.,4.8,1.,4.8,1.,4.8
1979-07-31 15:25:58.850 ,1,0,0.,4.8,6.,4.8,0.,4.8,1.,4.8
1979-07-31 15:26:03.650 ,1,0,0.,4.8,6.,4.8,1.,4.8,1.,4.8
1979-07-31 15:26:08.450 ,1,0,0.,4.8,14.,4.8,1.,4.8,1.,4.8
1979-07-31 15:26:13.250 ,1,0,0.,4.8,9.,4.8,0.,4.8,0.,4.8
1979-07-31 15:26:18.050 ,1,0,0.,4.8,9.,4.8,2.,4.8,0.,4.8
1979-07-31 15:26:22.850 ,2,0,0.,4.8,6.,4.8,1.,4.8,0.,4.8
1979-07-31 15:26:27.650 ,2,0,0.,4.8,6.,4.8,2.,4.8,0.,4.8
1979-07-31 15:26:32.450 ,2,0,0.,4.8,10.,4.8,2.,4.8,1.,4.8
1979-07-31 15:26:37.250 ,2,0,0.,4.8,10.,4.8,0.,4.8,0.,4.8
1979-07-31 15:26:42.050 ,2,0,0.,4.8,7.,4.8,0.,4.8,0.,4.8
1979-07-31 15:26:46.850 ,2,0,0.,4.8,4.,4.8,2.,4.8,1.,4.8
1979-07-31 15:26:51.650 ,2,0,0.,4.8,3.,4.8,0.,4.8,0.,4.8
1979-07-31 15:26:56.450 ,2,0,0.,4.8,11.,4.8,0.,4.8,0.,4.8
1979-07-31 15:27:01.250 ,2,0,0.,4.8,5.,4.8,0.,4.8,0.,4.8
1979-07-31 15:27:06.050 ,2,0,0.,4.8,7.,4.8,1.,4.8,0.,4.8
1979-07-31 15:27:10.850 ,3,0,0.,4.8,10.,4.8,0.,4.8,2.,4.8
1979-07-31 15:27:15.650 ,3,0,0.,4.8,11.,4.8,0.,4.8,0.,4.8
1979-07-31 15:27:20.450 ,3,0,0.,4.8,14.,4.8,0.,4.8,0.,4.8
1979-07-31 15:27:25.250 ,3,0,0.,4.8,5.,4.8,2.,4.8,0.,4.8
1979-07-31 15:27:30.050 ,3,0,0.,4.8,12.,4.8,1.,4.8,0.,4.8
1979-07-31 15:27:34.850 ,3,0,0.,4.8,7.,4.8,1.,4.8,1.,4.8
1979-07-31 15:27:39.650 ,3,0,0.,4.8,9.,4.8,1.,4.8,1.,4.8
1979-07-31 15:27:44.450 ,3,0,0.,4.8,14.,4.8,0.,4.8,0.,4.8
1979-07-31 15:27:49.250 ,3,0,0.,4.8,16.,4.8,1.,4.8,0.,4.8
1979-07-31 15:27:54.050 ,3,0,0.,4.8,9.,4.8,1.,4.8,0.,4.8
1979-07-31 15:27:58.850 ,4,0,0.,4.8,9.,4.8,2.,4.8,1.,4.8
1979-07-31 15:28:03.650 ,4,0,0.,4.8,10.,4.8,0.,4.8,0.,4.8
1979-07-31 15:28:08.450 ,4,0,0.,4.8,8.,4.8,1.,4.8,0.,4.8
1979-07-31 15:28:13.250 ,4,0,0.,4.8,1.,4.8,0.,4.8,0.,4.8
1979-07-31 15:28:18.050 ,4,0,0.,4.8,6.,4.8,3.,4.8,0.,4.8
1979-07-31 15:28:22.850 ,4,0,0.,4.8,1.,4.8,1.,4.8,0.,4.8
1979-07-31 15:28:27.650 ,4,0,0.,4.8,6.,4.8,1.,4.8,1.,4.8
1979-07-31 15:28:32.450 ,4,0,0.,4.8,2.,4.8,1.,4.8,0.,4.8
1979-07-31 15:28:37.250 ,4,0,0.,4.8,3.,4.8,1.,4.8,1.,4.8
1979-07-31 15:28:42.050 ,4,0,0.,4.8,2.,4.8,1.,4.8,0.,4.8
1979-07-31 15:28:46.850 ,5,0,0.,4.8,7.,4.8,1.,4.8,0.,4.8
1979-07-31 15:28:51.650 ,5,0,0.,4.8,5.,4.8,1.,4.8,0.,4.8
1979-07-31 15:28:56.450 ,5,0,0.,4.8,7.,4.8,1.,4.8,0.,4.8
1979-07-31 15:29:01.250 ,5,0,0.,4.8,2.,4.8,0.,4.8,1.,4.8
1979-07-31 15:29:06.050 ,5,0,0.,4.8,4.,4.8,2.,4.8,0.,4.8
1979-07-31 15:29:10.850 ,5,0,0.,4.8,5.,4.8,1.,4.8,0.,4.8
1979-07-31 15:29:15.650 ,5,0,0.,4.8,4.,4.8,1.,4.8,0.,4.8
1979-07-31 15:29:20.450 ,5,0,0.,4.8,4.,4.8,1.,4.8,0.,4.8
1979-07-31 15:29:25.250 ,5,0,0.,4.8,4.,4.8,0.,4.8,1.,4.8
1979-07-31 15:29:30.050 ,5,0,0.,4.8,1.,4.8,1.,4.8,0.,4.8
1979-07-31 15:29:34.850 ,6,0,0.,4.8,8.,4.8,0.,4.8,0.,4.8
1979-07-31 15:29:39.650 ,6,0,0.,4.8,6.,4.8,2.,4.8,0.,4.8
1979-07-31 15:29:44.450 ,6,0,0.,4.8,8.,4.8,0.,4.8,0.,4.8
1979-07-31 15:29:49.250 ,6,0,0.,4.8,9.,4.8,0.,4.8,0.,4.8
1979-07-31 15:29:54.050 ,6,0,0.,4.8,10.,4.8,1.,4.8,2.,4.8
1979-07-31 15:29:58.850 ,6,0,0.,4.8,12.,4.8,2.,4.8,0.,4.8
1979-07-31 15:30:03.650 ,6,0,0.,4.8,14.,4.8,0.,4.8,0.,4.8
1979-07-31 15:30:08.450 ,6,0,0.,4.8,12.,4.8,0.,4.8,0.,4.8
1979-07-31 15:30:13.250 ,6,0,0.,4.8,10.,4.8,1.,4.8,0.,4.8
1979-07-31 15:30:18.050 ,6,0,0.,4.8,13.,4.8,1.,4.8,2.,4.8
1979-07-31 15:30:22.850 ,7,0,0.,4.8,15.,4.8,0.,4.8,0.,4.8
1979-07-31 15:30:27.650 ,7,0,0.,4.8,7.,4.8,2.,4.8,1.,4.8
1979-07-31 15:30:32.450 ,7,0,0.,4.8,0.,4.8,0.,4.8,0.,4.8
1979-07-31 15:30:37.250 ,7,0,0.,4.8,1.,4.8,0.,4.8,0.,4.8
1979-07-31 15:30:42.050 ,7,0,0.,4.8,1.,4.8,0.,4.8,0.,4.8
1979-07-31 15:30:46.850 ,7,0,0.,4.8,1.,4.8,0.,4.8,0.,4.8
1979-07-31 15:30:51.650 ,7,0,0.,4.8,0.,4.8,0.,4.8,0.,4.8
1979-07-31 15:30:56.450 ,7,0,0.,4.8,0.,4.8,0.,4.8,0.,4.8
1979-07-31 15:31:01.250 ,7,0,0.,4.8,0.,4.8,0.,4.8,0.,4.8
1979-07-31 15:31:06.050 ,7,0,0.,4.8,0.,4.8,0.,4.8,0.,4.8
1979-07-31 15:31:10.850 ,3,1,0.,4.8,2.,4.8,0.,4.8,0.,4.8
1979-07-31 15:31:15.650 ,3,1,0.,4.8,9.,4.8,0.,4.8,0.,4.8
1979-07-31 15:31:20.450 ,3,1,0.,4.8,5.,4.8,1.,4.8,1.,4.8
1979-07-31 15:31:25.250 ,3,1,0.,4.8,1.,4.8,1.,4.8,0.,4.8
1979-07-31 15:31:30.050 ,3,1,0.,4.8,8.,4.8,1.,4.8,0.,4.8
1979-07-31 15:31:34.850 ,0,1,0.,4.8,9.,4.8,1.,4.8,0.,4.8
1979-07-31 15:31:39.650 ,0,1,0.,4.8,11.,4.8,1.,4.8,0.,4.8
1979-07-31 15:31:44.450 ,0,1,0.,4.8,7.,4.8,0.,4.8,0.,4.8
1979-07-31 15:31:49.250 ,0,1,0.,4.8,13.,4.8,2.,4.8,0.,4.8
1979-07-31 15:31:54.050 ,0,1,0.,4.8,7.,4.8,1.,4.8,0.,4.8
1979-07-31 15:31:58.850 ,4,1,0.,4.8,15.,4.8,0.,4.8,0.,4.8
1979-07-31 15:32:03.650 ,4,1,0.,4.8,5.,4.8,1.,4.8,0.,4.8
1979-07-31 15:32:08.450 ,4,1,0.,4.8,7.,4.8,0.,4.8,1.,4.8
1979-07-31 15:32:13.250 ,4,1,0.,4.8,14.,4.8,1.,4.8,1.,4.8
1979-07-31 15:32:18.050 ,4,1,0.,4.8,3.,4.8,4.,4.8,1.,4.8
1979-07-31 15:32:22.850 ,7,1,0.,4.8,2.,4.8,1.,4.8,1.,4.8
1979-07-31 15:32:27.650 ,7,1,0.,4.8,4.,4.8,0.,4.8,2.,4.8
1979-07-31 15:32:32.450 ,7,1,0.,4.8,6.,4.8,2.,4.8,0.,4.8
1979-07-31 15:32:37.250 ,7,1,0.,4.8,3.,4.8,0.,4.8,0.,4.8
1979-07-31 15:32:42.050 ,7,1,0.,4.8,0.,4.8,0.,4.8,0.,4.8
1979-07-31 15:32:46.850 ,3,1,0.,4.8,5.,4.8,1.,4.8,0.,4.8
1979-07-31 15:32:51.650 ,3,1,0.,4.8,13.,4.8,1.,4.8,0.,4.8
1979-07-31 15:32:56.450 ,3,1,0.,4.8,6.,4.8,1.,4.8,1.,4.8
1979-07-31 15:33:01.250 ,3,1,0.,4.8,6.,4.8,2.,4.8,0.,4.8
1979-07-31 15:33:06.050 ,3,1,0.,4.8,8.,4.8,4.,4.8,0.,4.8
1979-07-31 15:33:10.850 ,0,1,0.,4.8,12.,4.8,1.,4.8,0.,4.8
1979-07-31 15:33:15.650 ,0,1,0.,4.8,6.,4.8,0.,4.8,0.,4.8
1979-07-31 15:33:20.450 ,0,1,0.,4.8,8.,4.8,1.,4.8,0.,4.8
1979-07-31 15:33:25.250 ,0,1,0.,4.8,11.,4.8,0.,4.8,0.,4.8
1979-07-31 15:33:30.050 ,0,1,0.,4.8,12.,4.8,1.,4.8,1.,4.8
1979-07-31 15:33:34.850 ,4,1,0.,4.8,11.,4.8,0.,4.8,1.,4.8
1979-07-31 15:33:39.650 ,4,1,0.,4.8,7.,4.8,0.,4.8,1.,4.8
1979-07-31 15:33:44.450 ,4,1,0.,4.8,4.,4.8,1.,4.8,0.,4.8
1979-07-31 15:33:49.250 ,4,1,0.,4.8,7.,4.8,2.,4.8,0.,4.8
1979-07-31 15:33:54.050 ,4,1,0.,4.8,6.,4.8,1.,4.8,0.,4.8